Regional Weather Roundup
Issued by NWS

Home | Current Version | Previous Version | Graphics & Text | Print | Product List | Glossary On
Versions: 1 2 3 4 5 6 7 8 9 10 11 12 13 14 15 16 17 18 19 20 21 22 23 24 25 26 27 28 29 30 31 32 33 34 35 36 37 38 39 40 41 42 43 44 45 46 47 48 49 50
000
ASUS45 KCYS 270410
RWRWY

WYOMING REGIONAL WEATHER ROUNDUP
NATIONAL WEATHER SERVICE CHEYENNE WY
1000 PM MDT THU MAR 26 2015

NOTE:  "FAIR" INDICATES FEW OR NO CLOUDS BELOW 12,000 FEET
WITH NO SIGNIFICANT WEATHER AND/OR OBSTRUCTIONS TO VISIBILITY.

WYZ001-270500-
YELLOWSTONE NATIONAL PARK

CITY           SKY/WX    TMP DP  RH WIND       PRES   REMARKS
LK YELLOWSTONE   N/A     31  28  89 CALM      30.39R
W YELLOWSTONE  NOT AVBL

$$
WYZ002>013-054>058-071-098>099-270500-
NORTHERN WYOMING

CITY           SKY/WX    TMP DP  RH WIND       PRES   REMARKS
JACKSON        MOCLDY    37  34  87 CALM      30.35S
CODY           FAIR      54  30  40 W15G30    30.16R
GREYBULL       CLOUDY    55  32  41 NW6       30.12R
WORLAND        FAIR      46  30  53 SW3       30.13R
SHERIDAN       CLOUDY    49  38  65 W8        30.10S
BUFFALO        FAIR      47  36  65 CALM      30.13R
GILLETTE       LGT RAIN  43  37  79 SE6       30.12R
HULETT         CLOUDY    39  37  93 S5        30.12F
NEWCASTLE      CLOUDY    41  32  70 MISG      30.15R

$$
WYZ014>020-022>026-101>103-270500-
CENTRAL WYOMING

CITY           SKY/WX    TMP DP  RH WIND       PRES   REMARKS
BIG PINEY      FAIR      37  27  67 NW13      30.34R WCI  29
PINEDALE       FAIR      37  30  75 W14       30.33R WCI  29
DUBOIS         CLOUDY    43  28  56 W18G29    30.31R
LANDER         FAIR      49  26  41 W12       30.18R
RIVERTON       FAIR      51  29  42 NW22G30   30.20R
CASPER         CLOUDY    47  30  51 W3        30.17R
DOUGLAS        CLOUDY    46  32  58 SW6       30.16R

$$
WYZ021-027>030-104>119-270500-
SOUTHERN WYOMING

CITY           SKY/WX    TMP DP  RH WIND       PRES   REMARKS
EVANSTON       FAIR      41  27  57 SW3       30.39R
KEMMERER       FAIR      37  32  81 NW6       30.38S WCI  33
FORT BRIDGER   FAIR      42  30  62 W9        30.40S
ROCK SPRINGS   FAIR      43  28  55 W18       30.32R
DIXON          FAIR      44  28  53 SW8       30.32R
RAWLINS        FAIR      46  27  47 W15       30.23R
SARATOGA       CLOUDY    45  28  53 SW18      30.26R
LARAMIE        CLOUDY    43  26  51 N6        30.22R
CHEYENNE       CLOUDY    43  26  51 E5        30.18R
TORRINGTON     CLOUDY    42  32  67 SE5       30.15R
PINE BLUFFS    MOCLDY    36  28  75 CALM      30.18R

$$



USA.gov is the U.S. government's official web portal to all federal, state and local government web resources and services.